User: anonymous   Login
Location: Arbon
(43.0005°N, 0.7472°E)
Time: 05:12:30
(UTC+00:00)
Language:

CZ-2D R/B - Orbit

View from above orbital plane
View from above orbital plane
View from above satellite
View from above satellite

Ground track
Ground track

The orbit data is extracted from the following two-line orbital elements,

1 37932U 11068C   20304.08305762 +.00000015 +00000-0 +26110-4 0  9990
2 37932 098.6663 237.8712 0038145 075.4647 295.4406 14.22048394464234
Epoch (UTC): 30 October 2020 01:59:36
Eccentricity: 0.0038145
inclination: 98.6663°
perigee height: 791 km
apogee height: 846 km
right ascension of ascending node: 237.8712°
argument of perigee: 75.4647°
revolutions per day: 14.22048394
mean anomaly at epoch: 295.4406°
orbit number at epoch: 46423

The dashed part of the orbit path shows where the satellite is in the earth's shadow,  

DLR